San Bernardino, CA

9:23 PM PST on December 12, 2019 (GMT -0800)
San Bernardino International

Weather History for KSBD - May, 2019

Change the Weather History Date:

Thursday, May 2, 2019

  Actual Average Record
Temperature  
Mean Temperature 66 °F -  
Max Temperature 80 °F 79 °F 96 °F (2014)
Min Temperature 51 °F 49 °F 50 °F (2018)
Growing Degree Days 16 (Base 50)    
Moisture  
Dew Point 47 °F    
Average Humidity 60    
Maximum Humidity 77    
Minimum Humidity 24    
Precipitation  
Precipitation 0.00 in - - ()
Sea Level Pressure  
Sea Level Pressure 29.98 in    
Wind  
Wind Speed 2 mph (WSW)    
Max Wind Speed 13 mph    
Max Gust Speed -    
Visibility 9 miles    
Events      
Averages and records for this station are not official NWS values.
T = Trace of Precipitation, MM = Missing Value Source: NWS Daily Summary

Daily Weather History Graph

Daily Weather History Graph

Search for Another Location

Airport or City:

Astronomy

May. 02, 2019 Rise Set
Actual Time 5:58 AM PDT 7:33 PM PDT
Civil Twilight 5:31 AM PDT 8:00 PM PDT
Nautical Twilight 4:59 AM PDT 8:32 PM PDT
Astronomical Twilight 4:26 AM PDT 9:06 PM PDT
Moon 5:03 AM PDT (5/2) 5:34 PM PDT (5/2)
Length of Visible Light 14h 28m
Length of Day
13h 34m
Waning Crescent, 5% of the Moon is Illuminated
May 2
Waning Crescent
May 4
New
May 11
First Quarter
May 18
Full
May 26
Last Quarter

Hourly Weather History & Observations

Time (PDT) Temp. Dew Point Humidity Pressure Visibility Wind Dir Wind Speed Gust Speed Precip Events Conditions
12:00 AM 58.1 °F 46.4 °F 65% 30.07 in 10.0 mi Calm Calm - N/A   Clear
12:20 AM 58.1 °F 46.6 °F 65% 30.06 in 10.0 mi Calm Calm - N/A   Clear
12:40 AM 58.1 °F 46.4 °F 65% 30.05 in 10.0 mi Calm Calm - N/A   Clear
1:00 AM 57.7 °F 46.4 °F 66% 30.03 in 10.0 mi Calm Calm - N/A   Clear
1:21 AM 57.2 °F 46.6 °F 68% 30.02 in 10.0 mi Calm Calm - N/A   Clear
1:40 AM 56.7 °F 46.2 °F 68% 30.02 in 10.0 mi Calm Calm - N/A   Clear
2:00 AM 55.9 °F 46.0 °F 69% 30.02 in 10.0 mi Calm Calm - N/A   Clear
2:20 AM 55.9 °F 46.4 °F 70% 30.01 in 10.0 mi Calm Calm - N/A   Clear
2:40 AM 54.7 °F 46.2 °F 73% 30.00 in 10.0 mi Calm Calm - N/A   Clear
3:00 AM 54.0 °F 45.3 °F 73% 30.00 in 10.0 mi Calm Calm - N/A   Clear
3:20 AM 53.6 °F 45.3 °F 74% 29.99 in 10.0 mi Calm Calm - N/A   Clear
3:40 AM 53.1 °F 45.1 °F 74% 30.00 in 10.0 mi Calm Calm - N/A   Clear
4:00 AM 53.4 °F 45.3 °F 74% 29.99 in 10.0 mi Calm Calm - N/A   Clear
4:20 AM 52.3 °F 45.0 °F 76% 29.99 in 10.0 mi Calm Calm - N/A   Clear
4:40 AM 52.7 °F 45.1 °F 75% 29.99 in 10.0 mi Calm Calm - N/A   Clear
5:00 AM 52.5 °F 44.8 °F 75% 29.98 in 10.0 mi Calm Calm - N/A   Clear
5:20 AM 51.6 °F 44.2 °F 76% 29.98 in 10.0 mi Calm Calm - N/A   Clear
5:40 AM 51.8 °F 44.6 °F 76% 29.97 in 10.0 mi Calm Calm - N/A   Clear
7:00 AM 53.6 °F 46.4 °F 77% 30.00 in 6.0 mi Calm Calm - N/A   Haze
7:52 AM 57.2 °F 46.4 °F 67% 30.01 in 6.0 mi Calm Calm - N/A   Haze
8:50 AM 60.8 °F 46.4 °F 59% 30.02 in 6.0 mi WSW 4.6 mph - N/A   Haze
10:50 AM 66.2 °F 46.4 °F 49% 30.00 in 6.0 mi Calm Calm - N/A   Haze
12:50 PM 77.0 °F 46.4 °F 34% 29.96 in 6.0 mi WNW 3.5 mph - N/A   Haze
1:50 PM 80.6 °F 44.6 °F 28% 29.94 in 6.0 mi WSW 10.4 mph - N/A   Haze
2:57 PM 80.6 °F 41.0 °F 24% 29.93 in 6.0 mi WSW 10.4 mph - N/A   Haze
3:50 PM 80.6 °F 46.4 °F 30% 29.92 in 6.0 mi WSW 8.1 mph - N/A   Haze
4:49 PM 78.8 °F 44.6 °F 30% 29.91 in 6.0 mi WSW 9.2 mph - N/A   Haze
5:49 PM 77.0 °F 48.2 °F 36% 29.91 in 6.0 mi WSW 10.4 mph - N/A   Haze
6:50 PM 73.4 °F 48.2 °F 41% 29.92 in 7.0 mi SW 12.7 mph - N/A   Scattered Clouds
7:47 PM 68.0 °F 48.2 °F 49% 29.92 in 7.0 mi WSW 9.2 mph - N/A   Clear
8:48 PM 68.0 °F 48.2 °F 49% 29.92 in 7.0 mi SW 4.6 mph - N/A   Clear
9:41 PM 64.9 °F 49.6 °F 58% 29.96 in 10.0 mi WSW 6.9 mph - N/A   Clear
10:00 PM 64.0 °F 49.6 °F 59% 29.97 in 10.0 mi WSW 3.5 mph - N/A   Clear
10:20 PM 62.8 °F 50.0 °F 63% 29.97 in 10.0 mi WSW 4.6 mph - N/A   Clear
10:40 PM 62.6 °F 49.5 °F 62% 29.97 in 10.0 mi WSW 3.5 mph - N/A   Clear
11:00 PM 63.3 °F 49.3 °F 60% 29.97 in 10.0 mi Calm Calm - N/A   Clear
11:21 PM 63.0 °F 49.3 °F 61% 29.97 in 10.0 mi Calm Calm - N/A   Clear
11:40 PM 62.6 °F 49.5 °F 62% 29.97 in 10.0 mi West 3.5 mph - N/A   Clear